Flag for Chile Weather past 2 weeks in Talcahuano, Chile

Now
61 °F

Sunny.


Feels Like: 61 °F
Forecast: 58 / 71 °F
Wind: 3 mph from South

Location: Concepcion Airport

Current Time: Feb 1, 2015 at 9:24:11 AM

Latest Report: Feb 1, 2015 at 9:00 AM


Visibility: 10 mi

Pressure: 29.95 "Hg

Humidity: 88%

Dew point: 57 °F

Location of TalcahuanoLocation

Historic Weather in Talcahuano — Graph

°F

Talcahuano temperature yesterday

Maximum temperature yesterday: 77 °F (at 5:00 PM)
Minimum temperature yesterday: 52 °F (at 6:00 AM)
Average temperature yesterday: 64 °F

Past Weeks' High & Low Weather Summary

 TemperatureHumidityPressure
High77 °F (Jan 17, 3:00 PM)100% (Jan 18, 12:00 AM)30.09 "Hg (Jan 18, 12:00 AM)
Low50 °F (Jan 29, 7:00 AM)47% (Jan 28, 2:00 PM)29.89 "Hg (Jan 25, 5:00 AM)
Average63 °F78%29.97 "Hg
* Reported Jan 17 8:00 AM — Feb 1 8:00 AM, Talcahuano, Weather by CustomWeather, © 2014

Note: Actual official high and low records may vary slightly from our data, if they occured in-between our weather recording intervals... More about our weather records

Advertising

Talcahuano weather history for previous 24 hours

 ConditionsComfort  
Time TempWeatherWind HumidityBarometerVisibility
8:00 AM
Feb 1
57 °FSunny.3 mph88%29.92 "Hg10 mi
7:00 AM55 °FClear.5 mph94%29.92 "Hg10 mi
6:00 AM55 °FClear.3 mph94%29.89 "Hg10 mi
5:00 AM57 °FClear.5 mph88%29.89 "Hg10 mi
4:00 AM59 °FClear.6 mph88%29.89 "Hg10 mi
3:00 AM59 °FClear.7 mph88%29.89 "Hg10 mi
2:00 AM61 °FClear.7 mph83%29.92 "Hg10 mi
1:00 AM61 °FClear.12 mph88%29.92 "Hg10 mi
12:00 AM63 °FClear.14 mph77%29.92 "Hg10 mi
11:00 PM
Jan 31
63 °FClear.16 mph83%29.92 "Hg10 mi
10:00 PM64 °FClear.16 mph78%29.89 "Hg10 mi
9:00 PM66 °FSunny.14 mph78%29.89 "Hg10 mi
8:00 PM70 °FSunny.18 mph64%29.89 "Hg10 mi
7:00 PM72 °FSunny.16 mph61%29.89 "Hg10 mi
6:00 PM73 °FSunny.17 mph57%29.89 "Hg10 mi
5:00 PM77 °FSunny.18 mph54%29.89 "Hg10 mi
4:00 PM75 °FSunny.16 mph57%29.92 "Hg10 mi
3:00 PM75 °FSunny.13 mph54%29.92 "Hg10 mi
2:00 PM73 °FSunny.13 mph53%29.95 "Hg10 mi
1:00 PM72 °FPassing clouds.10 mph57%29.95 "HgN/A
12:00 PM70 °FPassing clouds.7 mph57%29.95 "HgN/A
11:00 AM68 °FSunny.5 mph60%29.95 "Hg10 mi
10:00 AM63 °FPassing clouds.5 mph68%29.95 "HgN/A
9:00 AM57 °FPassing clouds.5 mph88%29.95 "HgN/A
Weather by CustomWeather, © 2014

See weather overviewHow to use our weather pages